Location: Copeville
(33.0796°N, 96.4155°W)
Time: 11:05:06
(UTC+00:00)

Cosmos 1805 Rocket - Pass Details

Date: 05 July 2022
Orbit: 605 x 629 km, 82.5° (Epoch: 10 August)

Event Time Altitude Azimuth Distance (km) Brightness Sun altitude
Exits shadow 09:18:13 36° 159° (SSE) 996 4.3 -21.3°
Maximum altitude 09:19:51 61° 94° (E) 706 3.9 -21.1°
Drops below altitude 10° 09:24:12 10° 14° (NNE) 1,988 7.0 -20.5°
Sets 09:26:27 0° 11° (N) 2,893 8.0 -20.1°
